Home > Weather > Manassas > Past weeks

Flag for U.S.A. Weather for the Past 2 Weeks in Manassas, Virginia, U.S.A.

Now
23 °F

Partly sunny.


Feels Like: 10 °F
Forecast: 18 / 28 °F
Wind: 15 mph from Northwest

Location: Manassas Municipal

Current Time: Feb 11, 2016 at 11:02:42 AM

Latest Report: Feb 11, 2016 at 9:45 AM


Visibility: 10 mi

Pressure: 30.14 "Hg

Humidity: 46%

Dew point: 5 °F

Location of ManassasLocation

Historic Weather in Manassas — Graph

°F

Manassas Temperature Yesterday

Maximum temperature yesterday: 37 °F (at 12:55 PM)
Minimum temperature yesterday: 25 °F (at 9:45 PM)
Average temperature yesterday: 30 °F

High & Low Weather Summary for the Past Weeks

 TemperatureHumidityPressure
High63 °F (Jan 31, 1:45 PM)100% (Jan 27, 10:55 PM)30.47 "Hg (Jan 27, 10:55 PM)
Low10 °F (Jan 28, 6:45 AM)30% (Jan 31, 1:45 PM)29.56 "Hg (Feb 9, 5:15 AM)
Average35 °F77%30.00 "Hg
* Reported Jan 27 9:45 AM — Feb 11 9:45 AM, Manassas, Weather by CustomWeather, © 2016

Note: Actual official high and low records may vary slightly from our data, if they occured in-between our weather recording intervals... More about our weather records

Advertising

Manassas Weather History for the Previous 24 Hours

 ConditionsComfort  
Time TempWeatherWind HumidityBarometerVisibility
9:45 AM
Thu, Feb 11
23 °FPartly sunny.15 mph46%30.14 "Hg10 mi
8:45 AM21 °FOvercast.7 mph49%30.13 "Hg10 mi
7:45 AM21 °FSunny.9 mph54%30.10 "Hg10 mi
6:15 AM19 °FClear.3 mph53%30.06 "Hg10 mi
5:55 AM19 °FPassing clouds.5 mph53%30.06 "Hg10 mi
5:35 AM21 °FClear.9 mph49%30.05 "Hg10 mi
5:15 AM21 °FClear.9 mph49%30.04 "Hg10 mi
4:55 AM21 °FClear.12 mph54%30.03 "Hg10 mi
4:35 AM21 °FClear.6 mph54%30.02 "Hg10 mi
4:15 AM21 °FClear.8 mph54%30.01 "Hg10 mi
3:55 AM21 °FClear.8 mph54%30.01 "Hg10 mi
3:35 AM23 °FClear.17 mph50%29.99 "Hg10 mi
3:15 AM21 °FClear.6 mph58%30.00 "Hg10 mi
2:55 AM23 °FClear.10 mph54%30.00 "Hg10 mi
2:35 AM23 °FClear.15 mph54%30.00 "Hg10 mi
2:15 AM23 °FClear.14 mph54%29.99 "Hg10 mi
1:55 AM25 °FClear.8 mph50%29.99 "Hg10 mi
1:35 AM25 °FClear.14 mph50%29.99 "Hg10 mi
1:15 AM25 °FClear.12 mph50%29.99 "Hg10 mi
12:35 AM25 °FClear.9 mph50%29.99 "Hg10 mi
12:15 AM23 °FClear.6 mph54%29.98 "Hg10 mi
11:35 PM
Wed, Feb 10
25 °FClear.9 mph54%29.97 "Hg10 mi
11:15 PM25 °FClear.10 mph54%29.97 "Hg10 mi
10:55 PM25 °FPassing clouds.13 mph54%29.96 "Hg10 mi
10:35 PM25 °FPassing clouds.12 mph54%29.96 "Hg10 mi
9:45 PM25 °FPassing clouds.8 mph59%29.95 "Hg10 mi
8:45 PM27 °FMostly cloudy.12 mph54%29.94 "Hg10 mi
7:45 PM27 °FOvercast.10 mph59%29.92 "Hg10 mi
5:45 PM28 °FMostly cloudy.17 mph69%29.89 "Hg10 mi
4:45 PM32 °FMore clouds than sun.15 mph60%29.83 "Hg10 mi
3:45 PM36 °FOvercast.9 mph48%29.79 "Hg10 mi
2:45 PM37 °FOvercast.8 mph45%29.78 "Hg10 mi
1:55 PM37 °FOvercast.5 mph45%29.78 "Hg10 mi
12:55 PM37 °FPartly sunny.13 mph45%29.79 "Hg10 mi
11:45 AM36 °FScattered clouds.12 mph52%29.80 "Hg10 mi
Weather by CustomWeather, © 2016

See weather overviewHow to use our weather pages